Date,TemperatureHighF,TemperatureAvgF,TemperatureLowF,DewpointHighF,DewpointAvgF,DewpointLowF,HumidityHigh,HumidityAvg,HumidityLow,PressureMaxIn,PressureMinIn,WindSpeedMaxMPH,WindSpeedAvgMPH,GustSpeedMaxMPH,PrecipitationSumIn
2013-3-1,29.7,27.8,26.1,26.8,24.1,22.6,92,86,79,30.20,30.10,10,1,14,0.00
2013-3-2,35.1,26.9,20.4,24.7,20.7,16.6,91,78,59,30.29,30.17,9,1,11,0.00
2013-3-3,56.2,37.6,19.4,31.7,24.7,16.5,92,63,35,30.18,29.78,11,1,18,0.00
2013-3-4,66.2,48.8,37.0,46.5,37.8,27.8,89,67,47,29.78,29.54,12,2,14,0.00
2013-3-5,41.4,35.7,28.0,34.7,26.3,20.5,93,70,52,30.23,29.74,19,3,23,0.07
2013-3-6,47.5,34.0,24.3,27.7,22.3,17.1,76,63,43,30.35,30.21,6,1,11,0.00
2013-3-7,61.4,44.7,30.5,34.6,28.6,23.4,79,56,28,30.25,30.09,10,1,14,0.00
2013-3-8,58.2,46.6,34.9,39.5,34.6,30.3,84,64,46,30.21,30.00,13,2,13,0.02
2013-3-9,72.4,55.8,43.5,55.7,46.4,38.0,96,73,42,30.00,29.62,20,2,22,0.09
2013-3-10,56.9,46.5,30.6,55.5,44.9,28.8,100,94,75,29.81,29.53,15,2,21,0.91
2013-3-11,42.9,32.4,26.8,30.8,25.5,22.7,93,77,49,29.98,29.78,15,4,19,0.00
2013-3-12,54.2,39.2,27.2,32.4,26.1,22.4,87,62,38,30.26,29.98,17,1,20,0.00
2013-3-13,49.2,36.3,25.2,28.6,23.4,19.6,81,61,37,30.41,30.25,11,1,17,0.00
2013-3-14,71.8,48.8,28.0,43.8,32.2,22.0,82,55,34,30.32,30.02,18,2,22,0.00
2013-3-15,80.7,64.2,49.3,52.5,45.4,39.7,76,53,28,30.02,29.63,19,2,20,0.00
2013-3-16,66.8,58.3,43.3,51.3,44.3,37.1,79,60,45,29.81,29.61,14,2,16,0.00
2013-3-17,43.3,39.2,36.6,39.3,37.7,35.0,100,94,79,29.87,29.63,10,1,11,0.46
2013-3-18,53.7,43.4,38.7,41.3,37.0,29.8,98,80,49,29.97,29.63,13,1,15,0.16
2013-3-19,48.5,37.6,27.1,30.7,26.2,17.0,89,66,35,30.19,29.96,5,0,8,0.51
2013-3-20,45.6,35.5,27.6,31.0,21.1,13.4,95,60,29,30.29,30.08,16,1,24,0.00
2013-3-21,38.0,29.2,23.9,28.4,21.6,13.8,95,75,40,30.08,29.84,10,1,10,0.36
2013-3-22,36.5,32.7,29.3,34.1,31.2,28.0,96,94,91,29.91,29.83,7,0,11,0.00
2013-3-23,40.7,37.2,33.9,39.0,35.7,32.9,97,94,83,29.91,29.66,5,0,7,0.05
2013-3-24,40.1,33.3,27.7,39.3,31.3,21.9,97,92,79,30.02,29.52,20,2,24,0.30
2013-3-25,31.8,26.9,21.8,26.0,21.7,17.4,88,81,70,30.27,29.99,17,3,19,0.08
2013-3-26,42.1,31.2,21.4,28.1,23.9,19.2,93,75,52,30.37,30.27,11,1,11,0.01
2013-3-27,52.6,39.0,22.2,32.5,26.3,19.0,91,63,39,30.32,30.13,9,1,15,0.00
2013-3-28,69.8,55.7,42.7,48.2,39.9,31.3,71,56,42,30.18,30.03,8,1,12,0.00
2013-3-29,68.0,57.2,50.2,55.8,49.5,42.5,97,77,56,30.09,30.01,6,0,7,0.20
2013-3-30,69.5,55.8,49.3,56.9,50.7,47.0,95,84,57,30.04,29.75,12,1,16,0.35
2013-3-31,68.5,56.5,46.3,51.2,45.4,39.8,97,70,39,29.88,29.75,13,1,14,0.15